KLM2213 EDDF-EGKK

Flight info

Callsign KLM2213
Flight time N/A
Altitude 36000
Route OBOKA5G/25C OBOKA Z29 TORNU DCT BREDA DCT VICOT DCT GALSO Q63 ARREK Y4 TEBRA DCT ABTUM DCT ARNUN DCT LARCK
Aircraft B77W/H-SDE1E2E3FGHIJ2J3J4J5M1RWXY/LB1D1

Departure

Time 2026-05-07 08:11
Airport Frankfurt Main Airport (EDDF)

Arrival

Time N/A
Airport London Gatwick Airport (EGKK)
Time Latitude Longitude Altitude Speed Heading
2026-05-07 07:39 50.04722 8.56372 361 ft 0 kts 342°
2026-05-07 07:57 50.04708 8.56379 368 ft 3 kts 340°
2026-05-07 07:57 50.04690 8.56391 367 ft 3 kts 333°
2026-05-07 07:57 50.04675 8.56405 369 ft 2 kts 310°
2026-05-07 07:57 50.04669 8.56424 364 ft 2 kts 272°
2026-05-07 07:58 50.04670 8.56445 363 ft 2 kts 253°
2026-05-07 07:58 50.04673 8.56459 369 ft 1 kts 250°
2026-05-07 07:58 50.04675 8.56472 367 ft 1 kts 249°
2026-05-07 07:58 50.04677 8.56478 367 ft 0 kts 249°
2026-05-07 08:00 50.04677 8.56477 367 ft 1 kts 249°
2026-05-07 08:00 50.04664 8.56425 365 ft 9 kts 249°
2026-05-07 08:01 50.04639 8.56321 367 ft 11 kts 249°
2026-05-07 08:01 50.04613 8.56212 367 ft 11 kts 249°
2026-05-07 08:01 50.04588 8.56109 368 ft 9 kts 250°
2026-05-07 08:01 50.04566 8.56019 366 ft 8 kts 249°
2026-05-07 08:02 50.04528 8.55957 368 ft 7 kts 208°
2026-05-07 08:02 50.04481 8.55930 366 ft 7 kts 194°
2026-05-07 08:02 50.04431 8.55911 368 ft 8 kts 193°
2026-05-07 08:02 50.04372 8.55912 365 ft 9 kts 170°
2026-05-07 08:03 50.04341 8.55929 366 ft 1 kts 157°
2026-05-07 08:03 50.04327 8.55938 366 ft 4 kts 157°
2026-05-07 08:03 50.04308 8.55950 364 ft 2 kts 157°
2026-05-07 08:03 50.04287 8.55960 359 ft 4 kts 169°
2026-05-07 08:04 50.04253 8.55950 361 ft 6 kts 203°
2026-05-07 08:04 50.04216 8.55912 364 ft 7 kts 194°
2026-05-07 08:04 50.04163 8.55929 361 ft 9 kts 165°
2026-05-07 08:04 50.04109 8.55959 361 ft 8 kts 156°
2026-05-07 08:05 50.04075 8.56030 364 ft 9 kts 98°
2026-05-07 08:05 50.04091 8.56124 361 ft 9 kts 70°
2026-05-07 08:05 50.04112 8.56217 364 ft 9 kts 70°
2026-05-07 08:05 50.04134 8.56309 362 ft 9 kts 68°
2026-05-07 08:06 50.04158 8.56407 366 ft 12 kts 70°
2026-05-07 08:06 50.04200 8.56583 366 ft 20 kts 70°
2026-05-07 08:06 50.04247 8.56782 370 ft 20 kts 70°
2026-05-07 08:06 50.04295 8.56982 370 ft 20 kts 69°
2026-05-07 08:07 50.04340 8.57170 367 ft 17 kts 70°
2026-05-07 08:07 50.04380 8.57342 370 ft 17 kts 70°
2026-05-07 08:07 50.04422 8.57511 368 ft 17 kts 70°
2026-05-07 08:07 50.04462 8.57683 372 ft 17 kts 70°
2026-05-07 08:08 50.04503 8.57854 373 ft 17 kts 70°
2026-05-07 08:08 50.04544 8.58026 373 ft 18 kts 69°
2026-05-07 08:08 50.04573 8.58145 373 ft 18 kts 70°
2026-05-07 08:08 50.04615 8.58327 376 ft 13 kts 70°
2026-05-07 08:09 50.04644 8.58450 378 ft 8 kts 70°
2026-05-07 08:09 50.04636 8.58555 377 ft 9 kts 135°
2026-05-07 08:09 50.04600 8.58585 377 ft 9 kts 158°
2026-05-07 08:09 50.04546 8.58617 380 ft 8 kts 160°
2026-05-07 08:10 50.04496 8.58600 379 ft 8 kts 222°
2026-05-07 08:10 50.04471 8.58517 380 ft 12 kts 249°
2026-05-07 08:10 50.04376 8.58123 375 ft 79 kts 250°
2026-05-07 08:10 50.04083 8.56903 371 ft 158 kts 250°
2026-05-07 08:11 50.03664 8.55177 1003 ft 164 kts 252°
2026-05-07 08:11 50.03264 8.53486 1931 ft 172 kts 253°
2026-05-07 08:11 50.02842 8.51665 2584 ft 189 kts 254°
2026-05-07 08:11 50.02692 8.49537 2843 ft 212 kts 278°
2026-05-07 08:12 50.02890 8.47098 3263 ft 237 kts 278°
2026-05-07 08:12 50.03043 8.44516 4100 ft 243 kts 273°
2026-05-07 08:12 50.02835 8.41845 4828 ft 254 kts 262°
2026-05-07 08:12 50.02474 8.39143 5019 ft 257 kts 261°
2026-05-07 08:13 50.02112 8.36413 5012 ft 259 kts 262°
2026-05-07 08:13 50.01764 8.33666 5022 ft 258 kts 262°
2026-05-07 08:13 50.01426 8.30907 4971 ft 263 kts 262°
2026-05-07 08:13 50.01293 8.28100 5162 ft 261 kts 284°
2026-05-07 08:14 50.01943 8.25471 5971 ft 262 kts 298°
2026-05-07 08:14 50.02724 8.22897 6901 ft 262 kts 301°
2026-05-07 08:14 50.03926 8.20797 7662 ft 263 kts 322°
2026-05-07 08:14 50.05413 8.19066 8463 ft 270 kts 323°
2026-05-07 08:15 50.06927 8.17312 9411 ft 273 kts 322°
2026-05-07 08:15 50.08452 8.15531 10297 ft 277 kts 322°
2026-05-07 08:15 50.10019 8.13679 11005 ft 288 kts 322°
2026-05-07 08:15 50.11635 8.11752 11883 ft 295 kts 322°
2026-05-07 08:16 50.13277 8.09779 12903 ft 300 kts 322°
2026-05-07 08:16 50.14962 8.07744 13700 ft 318 kts 322°
2026-05-07 08:16 50.16767 8.05553 13970 ft 349 kts 322°
2026-05-07 08:16 50.18789 8.03090 14297 ft 375 kts 322°
2026-05-07 08:17 50.20884 8.00528 15096 ft 386 kts 322°
2026-05-07 08:17 50.22990 7.97947 16267 ft 387 kts 322°
2026-05-07 08:17 50.25128 7.95322 17189 ft 396 kts 322°
2026-05-07 08:17 50.27286 7.92669 18182 ft 401 kts 322°
2026-05-07 08:18 50.29527 7.89911 19085 ft 407 kts 322°
2026-05-07 08:18 50.31756 7.87163 19999 ft 411 kts 322°
2026-05-07 08:18 50.34017 7.84373 20802 ft 417 kts 322°
2026-05-07 08:18 50.36305 7.81546 21676 ft 421 kts 321°
2026-05-07 08:19 50.38589 7.78720 22474 ft 427 kts 321°
2026-05-07 08:19 50.40933 7.75816 23309 ft 432 kts 321°
2026-05-07 08:19 50.43299 7.72879 24022 ft 437 kts 321°
2026-05-07 08:19 50.45688 7.69911 24759 ft 439 kts 321°
2026-05-07 08:20 50.48100 7.66911 25324 ft 446 kts 321°
2026-05-07 08:20 50.48920 7.65889 25527 ft 447 kts 321°